| time (UTC) | temp F | wind direction | speed MPH | gust MPH | rain 1hr in | rain 24hr in | rain mn in | humidity % | barometer mb |
| 20260903100031 | 43 | 151 | 2.0 | 6.0 | 0.01 | 0.36 | 0.01 | 96 | 1011.8 |
| 20260903093031 | 44 | 282 | 0.0 | 1.0 | 0.01 | 0.36 | 0.01 | 96 | 1011.9 |
| 20260903091530 | 44 | 141 | 2.0 | 5.0 | 0.01 | 0.36 | 0.00 | 96 | 1011.8 |
| 20260903090030 | 44 | 195 | 0.0 | 3.0 | 0.00 | 0.35 | 0.00 | 96 | 1012.0 |
| 20260903084529 | 45 | 171 | 1.0 | 4.0 | 0.00 | 0.35 | 0.00 | 96 | 1012.0 |
| 20260903083108 | 45 | 149 | 2.0 | 6.0 | 0.00 | 0.35 | 0.00 | 96 | 1011.9 |
| 20260903081607 | 45 | 154 | 3.0 | 5.0 | 0.00 | 0.35 | 0.00 | 96 | 1011.9 |
| 20260903080029 | 45 | 147 | 3.0 | 5.0 | 0.00 | 0.35 | 0.00 | 96 | 1011.8 |
| 20260903073030 | 46 | 158 | 1.0 | 4.0 | 0.00 | 0.35 | 0.00 | 95 | 1011.4 |
| 20260903071530 | 46 | 254 | 0.0 | 4.0 | 0.00 | 0.35 | 0.00 | 95 | 1011.5 |
| 20260903070029 | 46 | 249 | 1.0 | 4.0 | 0.00 | 0.35 | 0.00 | 95 | 1011.4 |
| 20260903064530 | 46 | 225 | 1.0 | 5.0 | 0.00 | 0.35 | 0.35 | 95 | 1011.4 |
| 20260903063028 | 46 | 28 | 0.0 | 3.0 | 0.00 | 0.35 | 0.35 | 95 | 1011.5 |
| 20260903060105 | 46 | 289 | 0.0 | 4.0 | 0.00 | 0.35 | 0.35 | 95 | 1011.6 |
| 20260903054532 | 47 | 134 | 1.0 | 3.0 | 0.00 | 0.35 | 0.35 | 94 | 1011.5 |
| 20260903053030 | 47 | 19 | 0.0 | 3.0 | 0.00 | 0.35 | 0.35 | 94 | 1011.5 |
| 20260903051531 | 48 | 294 | 2.0 | 6.0 | 0.00 | 0.35 | 0.35 | 94 | 1011.3 |
| 20260903050030 | 48 | 332 | 3.0 | 6.0 | 0.00 | 0.35 | 0.35 | 94 | 1011.3 |
| 20260903043056 | 49 | 246 | 0.0 | 4.0 | 0.00 | 0.35 | 0.35 | 94 | 1011.1 |
| 20260903041530 | 50 | 239 | 1.0 | 6.0 | 0.00 | 0.35 | 0.35 | 94 | 1011.0 |
| 20260903040030 | 50 | 226 | 3.0 | 8.0 | 0.00 | 0.35 | 0.35 | 94 | 1010.7 |
| 20260903034530 | 50 | 201 | 3.0 | 9.0 | 0.00 | 0.35 | 0.35 | 94 | 1010.7 |
| 20260903031531 | 52 | 233 | 1.0 | 5.0 | 0.05 | 0.35 | 0.35 | 94 | 1010.6 |
| 20260903030032 | 53 | 187 | 3.0 | 5.0 | 0.08 | 0.35 | 0.35 | 94 | 1010.5 |
| 20260903023030 | 55 | 118 | 1.0 | 4.0 | 0.14 | 0.34 | 0.30 | 94 | 1010.4 |
| 20260903021606 | 55 | 356 | 0.0 | 4.0 | 0.11 | 0.30 | 0.27 | 94 | 1010.3 |
| 20260903020031 | 56 | 315 | 2.0 | 7.0 | 0.09 | 0.27 | 0.20 | 94 | 1009.9 |
| 20260903014530 | 56 | 290 | 3.0 | 7.0 | 0.04 | 0.20 | 0.20 | 94 | 1009.4 |
| 20260903013033 | 55 | 216 | 0.0 | 3.0 | 0.05 | 0.20 | 0.19 | 93 | 1009.5 |
| 20260903011530 | 56 | 218 | 1.0 | 3.0 | 0.05 | 0.19 | 0.18 | 93 | 1009.7 |
| 20260903004530 | 56 | 267 | 2.0 | 6.0 | 0.05 | 0.16 | 0.15 | 92 | 1009.7 |
| 20260903000030 | 56 | 284 | 1.0 | 4.0 | 0.03 | 0.11 | 0.11 | 91 | 1009.7 |
| 20260902234530 | 56 | 355 | 1.0 | 3.0 | 0.04 | 0.11 | 0.09 | 91 | 1009.6 |
| 20260902233106 | 57 | 21 | 1.0 | 4.0 | 0.02 | 0.09 | 0.09 | 92 | 1009.7 |
| 20260902230029 | 57 | 288 | 1.0 | 5.0 | 0.02 | 0.08 | 0.07 | 91 | 1009.9 |
| 20260902224529 | 57 | 273 | 3.0 | 7.0 | 0.02 | 0.07 | 0.07 | 91 | 1009.8 |
| 20260902223031 | 56 | 294 | 2.0 | 5.0 | 0.02 | 0.07 | 0.07 | 91 | 1009.7 |
| 20260902221532 | 56 | 293 | 3.0 | 7.0 | 0.03 | 0.07 | 0.06 | 90 | 1009.8 |
| 20260902220031 | 57 | 277 | 4.0 | 7.0 | 0.03 | 0.06 | 0.05 | 89 | 1009.7 |
| 20260902214533 | 57 | 297 | 2.0 | 7.0 | 0.03 | 0.05 | 0.05 | 88 | 1009.5 |
| 20260902213146 | 56 | 305 | 2.0 | 6.0 | 0.04 | 0.05 | 0.04 | 87 | 1009.4 |
| 20260902211530 | 57 | 339 | 3.0 | 5.0 | 0.03 | 0.04 | 0.03 | 86 | 1009.4 |
| 20260902204529 | 57 | 86 | 3.0 | 7.0 | 0.02 | 0.02 | 0.01 | 83 | 1009.5 |
| 20260902203030 | 57 | 11 | 3.0 | 7.0 | 0.01 | 0.01 | 0.01 | 80 | 1009.6 |
| 20260902201530 | 58 | 349 | 2.0 | 7.0 | 0.01 | 0.01 | 0.00 | 77 | 1009.8 |
| 20260902200031 | 58 | 175 | 2.0 | 9.0 | 0.00 | 0.00 | 0.00 | 75 | 1009.7 |
| 20260902194530 | 59 | 131 | 3.0 | 9.0 | 0.00 | 0.00 | 0.00 | 74 | 1009.7 |
| 20260902193031 | 60 | 339 | 2.0 | 7.0 | 0.00 | 0.00 | 0.00 | 76 | 1009.7 |
| 20260902191532 | 60 | 2 | 1.0 | 7.0 | 0.00 | 0.00 | 0.00 | 75 | 1009.7 |
| 20260902190030 | 61 | 25 | 0.0 | 3.0 | 0.00 | 0.00 | 0.00 | 74 | 1009.7 |
| 20260902184529 | 61 | 148 | 0.0 | 3.0 | 0.00 | 0.00 | 0.00 | 73 | 1009.7 |
| 20260902183034 | 62 | 217 | 2.0 | 4.0 | 0.00 | 0.00 | 0.00 | 73 | 1009.8 |
| 20260902181531 | 61 | 267 | 0.0 | 5.0 | 0.00 | 0.00 | 0.00 | 74 | 1009.6 |
| 20260902180030 | 60 | 292 | 0.0 | 1.0 | 0.00 | 0.00 | 0.00 | 74 | 1009.7 |
| 20260902174531 | 60 | 307 | 2.0 | 6.0 | 0.00 | 0.00 | 0.00 | 73 | 1009.7 |
| 20260902173032 | 61 | 273 | 4.0 | 7.0 | 0.00 | 0.00 | 0.00 | 73 | 1009.7 |
| 20260902171529 | 60 | 266 | 2.0 | 5.0 | 0.00 | 0.00 | 0.00 | 75 | 1009.8 |
| 20260902170032 | 59 | 272 | 1.0 | 4.0 | 0.00 | 0.00 | 0.00 | 76 | 1009.9 |
| 20260902164529 | 58 | 320 | 1.0 | 4.0 | 0.00 | 0.00 | 0.00 | 76 | 1010.2 |
| 20260902163030 | 58 | 326 | 1.0 | 4.0 | 0.00 | 0.00 | 0.00 | 77 | 1010.4 |
| 20260902160031 | 58 | 17 | 2.0 | 5.0 | 0.00 | 0.00 | 0.00 | 76 | 1010.7 |
| 20260902154647 | 58 | 12 | 2.0 | 4.0 | 0.00 | 0.00 | 0.00 | 79 | 1010.9 |
| 20260902153029 | 56 | 349 | 0.0 | 3.0 | 0.00 | 0.00 | 0.00 | 82 | 1011.0 |
| 20260902151532 | 55 | 85 | 0.0 | 2.0 | 0.00 | 0.00 | 0.00 | 84 | 1010.9 |
| 20260902150030 | 55 | 99 | 0.0 | 3.0 | 0.00 | 0.00 | 0.00 | 86 | 1011.1 |
| 20260902144530 | 52 | 151 | 1.0 | 5.0 | 0.00 | 0.00 | 0.00 | 89 | 1011.2 |
| 20260902143108 | 51 | 152 | 0.0 | 3.0 | 0.00 | 0.00 | 0.00 | 90 | 1011.3 |
| 20260902141531 | 49 | 148 | 2.0 | 4.0 | 0.00 | 0.00 | 0.00 | 90 | 1011.3 |
| 20260902140031 | 48 | 157 | 1.0 | 5.0 | 0.00 | 0.00 | 0.00 | 89 | 1011.4 |
| 20260902134531 | 47 | 116 | 0.0 | 5.0 | 0.00 | 0.00 | 0.00 | 89 | 1011.3 |
| 20260902131644 | 46 | 187 | 2.0 | 5.0 | 0.00 | 0.00 | 0.00 | 87 | 1011.5 |
| 20260902130032 | 46 | 158 | 2.0 | 5.0 | 0.00 | 0.00 | 0.00 | 85 | 1011.4 |
| 20260902124606 | 47 | 148 | 2.0 | 4.0 | 0.00 | 0.00 | 0.00 | 83 | 1011.5 |
| 20260902123033 | 49 | 196 | 2.0 | 5.0 | 0.00 | 0.00 | 0.00 | 81 | 1011.5 |
| 20260902121531 | 52 | 144 | 3.0 | 5.0 | 0.00 | 0.00 | 0.00 | 79 | 1011.7 |
| 20260902120106 | 52 | 325 | 3.0 | 6.0 | 0.00 | 0.00 | 0.00 | 78 | 1011.7 |
| 20260902111531 | 55 | 303 | 4.0 | 12.0 | 0.00 | 0.00 | 0.00 | 73 | 1011.5 |
| 20260902110030 | 56 | 309 | 4.0 | 13.0 | 0.00 | 0.00 | 0.00 | 72 | 1011.6 |
| 20260902103033 | 56 | 293 | 6.0 | 14.0 | 0.00 | 0.00 | 0.00 | 73 | 1012.0 |
| 20260902101531 | 56 | 286 | 5.0 | 13.0 | 0.00 | 0.00 | 0.00 | 73 | 1012.1 |